Location: Aufkirchen
(47.9603°N, 11.3653°E)
Time: 14:17:36
(UTC+01:00)

Transit 2A Rocket - Pass Details

Date: 10 December 2020
Orbit: 592 x 910 km, 66.7° (Epoch: 21 January)

Event Time Altitude Azimuth Distance (km) Brightness Sun altitude
Rises 00:04:11 0° 221° (SW) 3,483 - -65.0°
Reaches altitude 10° 00:06:46 10° 223° (SW) 2,519 - -65.0°
Maximum altitude 00:12:36 70° 307° (NW) 886 - -64.9°
Drops below altitude 10° 00:18:01 10° 31° (NNE) 2,341 - -64.9°
Sets 00:20:20 0° 34° (NE) 3,222 - -64.8°
